Weather History for KIJD - May, 2013

Change the Weather History Date:

Thursday, May 16, 2013

  Actual Average Record
Temperature  
Mean Temperature 62 °F -  
Max Temperature 82 °F 69 °F 86 °F (1955)
Min Temperature 44 °F 44 °F 32 °F (1966)
Degree Days  
Heating Degree Days 2    
Growing Degree Days 12 (Base 50)    
Moisture  
Dew Point 45 °F    
Average Humidity 70    
Maximum Humidity 100    
Minimum Humidity 20    
Precipitation  
Precipitation 0.00 in - - ()
Sea Level Pressure  
Sea Level Pressure 29.73 in    
Wind  
Wind Speed 3 mph (West)    
Max Wind Speed 17 mph    
Max Gust Speed 26 mph    
Visibility 6 miles    
Events Fog    
Averages and records for this station are not official NWS values.
T = Trace of Precipitation, MM = Missing Value Source: NWS Daily Summary

Daily Weather History Graph

Daily Weather History Graph

Search for Another Location

Airport or City:

Trip Planner

Search our weather history database for the weather conditions in past years. The results will help you decide how hot, cold, wet, or windy it might be!

Date:

Astronomy

May. 16, 2013 Rise Set
Actual Time 5:27 AM EDT 8:03 PM EDT
Civil Twilight 4:55 AM EDT 8:34 PM EDT
Nautical Twilight 4:16 AM EDT 9:14 PM EDT
Astronomical Twilight 3:31 AM EDT 10:00 PM EDT
Moon 10:59 AM EDT (5/16) 12:20 AM EDT (5/16)
Length of Visible Light 15h 39m
Length of Day
14h 35m
Waxing Crescent, 35% of the Moon is Illuminated
May 16
Waxing Crescent
May 18
First Quarter
May 25
Full
May 31
Last Quarter
Jun 8
New

Hourly Weather History & Observations

Time (EDT) Temp. Dew Point Humidity Pressure Visibility Wind Dir Wind Speed Gust Speed Precip Events Conditions
12:18 AM 51.8 °F 50.0 °F 94% 29.72 in 5.0 mi North 3.5 mph - N/A   Scattered Clouds
12:49 AM 48.2 °F 48.2 °F 100% 29.72 in 4.0 mi Calm Calm - N/A   Scattered Clouds
12:52 AM 48.9 °F 48.0 °F 97% 29.72 in 4.0 mi Calm Calm - N/A   Scattered Clouds
1:31 AM 48.2 °F 48.2 °F 100% 29.71 in 2.5 mi Calm Calm - N/A   Mostly Cloudy
1:36 AM 48.2 °F 48.2 °F 100% 29.70 in 3.0 mi Calm Calm - N/A   Mostly Cloudy
1:52 AM 48.9 °F 46.9 °F 93% 29.71 in 4.0 mi Calm Calm - N/A   Overcast
2:01 AM 48.2 °F 48.2 °F 100% 29.71 in 1.8 mi Calm Calm - N/A   Overcast
2:12 AM 48.2 °F 48.2 °F 100% 29.71 in 0.2 mi Calm Calm - N/A Fog Fog
2:52 AM 48.0 °F 46.9 °F 96% 29.71 in 0.2 mi Calm Calm - N/A Fog Fog
3:52 AM 46.0 °F 46.0 °F 100% 29.70 in 0.2 mi Calm Calm - N/A Fog Fog
4:52 AM 45.0 °F 44.1 °F 97% 29.70 in 0.2 mi Calm Calm - N/A Fog Fog
5:52 AM 44.1 °F 44.1 °F 100% 29.71 in 0.2 mi Calm Calm - N/A Fog Fog
6:52 AM 44.1 °F 44.1 °F 100% 29.73 in 0.2 mi Calm Calm - N/A Fog Fog
7:13 AM 46.4 °F 46.4 °F 100% 29.73 in 1.0 mi Calm Calm - N/A   Mist
7:17 AM 46.4 °F 46.4 °F 100% 29.73 in 3.0 mi Calm Calm - N/A   Mostly Cloudy
7:33 AM 46.4 °F 46.4 °F 100% 29.73 in 9.0 mi Calm Calm - N/A   Mostly Cloudy
7:52 AM 48.0 °F 46.9 °F 96% 29.73 in 7.0 mi Calm Calm - N/A   Partly Cloudy
8:52 AM 62.1 °F 51.1 °F 67% 29.76 in 10.0 mi SW 4.6 mph - N/A   Clear
9:52 AM 70.0 °F 39.9 °F 33% 29.77 in 10.0 mi WNW 12.7 mph 19.6 mph N/A   Clear
10:52 AM 72.0 °F 39.0 °F 30% 29.77 in 10.0 mi West 11.5 mph 17.3 mph N/A   Clear
11:52 AM 73.9 °F 39.0 °F 28% 29.74 in 10.0 mi Variable 6.9 mph - N/A   Clear
12:52 PM 77.0 °F 34.0 °F 21% 29.72 in 10.0 mi West 12.7 mph 19.6 mph N/A   Clear
1:52 PM 79.0 °F 36.0 °F 21% 29.70 in 10.0 mi West 12.7 mph 20.7 mph N/A   Clear
2:52 PM 80.1 °F 37.0 °F 21% 29.69 in 10.0 mi WSW 12.7 mph 18.4 mph N/A   Clear
3:52 PM 81.0 °F 36.0 °F 20% 29.68 in 10.0 mi WNW 17.3 mph 26.5 mph N/A   Clear
4:52 PM 81.0 °F 36.0 °F 20% 29.68 in 10.0 mi West 11.5 mph 17.3 mph N/A   Partly Cloudy
5:52 PM 78.1 °F 42.1 °F 28% 29.68 in 10.0 mi SW 8.1 mph 17.3 mph N/A   Partly Cloudy
6:52 PM 73.9 °F 46.9 °F 38% 29.69 in 10.0 mi South 11.5 mph 18.4 mph N/A   Clear
7:52 PM 71.1 °F 46.9 °F 42% 29.72 in 5.0 mi WSW 5.8 mph - N/A   Haze
8:52 PM 69.1 °F 48.0 °F 47% 29.75 in 10.0 mi SW 4.6 mph - N/A   Clear
9:52 PM 64.9 °F 51.1 °F 61% 29.79 in 10.0 mi Calm Calm - N/A   Partly Cloudy
10:52 PM 59.0 °F 51.1 °F 75% 29.81 in 10.0 mi Calm Calm - N/A   Clear
11:52 PM 54.0 °F 50.0 °F 86% 29.82 in 10.0 mi Calm Calm - N/A   Clear